Regional Weather Roundup
Issued by NWS

Home | Current Version | Previous Version | Graphics & Text | Print | Product List | Glossary On
Versions: 1 2 3 4 5 6 7 8 9 10 11 12 13 14 15 16 17 18 19 20 21 22 23 24 25 26 27 28 29 30 31 32 33 34 35 36 37 38 39 40 41 42 43 44 45 46 47 48 49 50
000
ASUS44 KMEG 031510
RWRTN
TENNESSEE HOURLY STATE WEATHER ROUNDUP
NATIONAL WEATHER SERVICE MEMPHIS TN
1000 AM CDT SUN MAY 03 2015

TNZ002-004-019-021-049-052-054-088>092-031600-
WEST TENNESSEE

CITY           SKY/WX    TMP DP  RH WIND       PRES   REMARKS
MEMPHIS INTL   MOSUNNY   74  52  46 S9        30.12R
NWS MEMPHIS      N/A     74 N/A N/A MISG        N/A
JACKSON        MOSUNNY   73  50  44 SW9       30.13R
DYERSBURG      PTSUNNY   72  46  40 S6        30.12S
PARIS          SUNNY     72  52  49 S6        30.13R
$$

TNZ008-025-027-028-033-062-065-066-031600-
NORTH MIDDLE TENNESSEE

CITY           SKY/WX    TMP DP  RH WIND       PRES   REMARKS
NASHVILLE      MOSUNNY   72  51  47 CALM      30.15S
CLARKSVILLE    MOSUNNY   70  51  51 VRB7      30.13S
SMYRNA         SUNNY     70  52  52 CALM      30.16S
COOKEVILLE     SUNNY     72  52  49 SW6       30.16S
CROSSVILLE     MOSUNNY   70  44  39 VRB6      30.19S
$$

TNZ061-075-076-078-094-096-097-031600-
SOUTH MIDDLE TENNESSEE

CITY           SKY/WX    TMP DP  RH WIND       PRES   REMARKS
FAYETTEVILLE     N/A     70  52  52 SW6       30.17R
WINCHESTER     SUNNY     73  50  43 CALM      30.17R
MCMINNVILLE    SUNNY     70  54  56 S5        30.17S
COLUMBIA       SUNNY     73  55  53 CALM      30.14S
SHELBYVILLE    SUNNY     72  55  56 S5        30.17S
$$

TNZ017-018-042-046-047-031600-
NORTHEAST TENNESSEE

CITY           SKY/WX    TMP DP  RH WIND       PRES   REMARKS
TRI CITIES     MOSUNNY   66  45  46 E3        30.21S
ELIZABETHTON   SUNNY     66  43  42 CALM      30.20S
$$

TNZ012-013-036-069-073-074-031600-
CENTRAL EAST TENNESSEE

CITY           SKY/WX    TMP DP  RH WIND       PRES   REMARKS
KNOXVILLE      NOT AVBL
OAK RIDGE      SUNNY     68  47  46 SW3       30.20S
GATLINBURG     SUNNY     66  46  48 CALM      30.18S
MORRISTOWN     SUNNY     68  46  45 CALM      30.20S
$$

TNZ083-085-099-031600-
SOUTHEAST TENNESSEE

CITY           SKY/WX    TMP DP  RH WIND       PRES   REMARKS
CHATTANOOGA    MOSUNNY   69  52  54 N5        30.19S
$$

SKY/WX REPORTED AS FAIR MEANS FEW OR NO CLOUDS BELOW
12 THOUSAND FEET.




USA.gov is the U.S. government's official web portal to all federal, state and local government web resources and services.